Regional Weather Roundup
Issued by NWS

Home | Current Version | Previous Version | Graphics & Text | Print | Product List | Glossary On
Versions: 1 2 3 4 5 6 7 8 9 10 11 12 13 14 15 16 17 18 19 20 21 22 23 24 25 26 27 28 29 30 31 32 33 34 35 36 37 38 39 40 41 42 43 44 45 46 47 48 49 50
000
ASUS43 KFSD 301710
RWRSD

WEATHER ROUNDUP FOR SOUTH DAKOTA
NATIONAL WEATHER SERVICE SIOUX FALLS SD
1200 PM CDT TUE JUN 30 2015

NOTE: "FAIR" INDICATES FEW OR NO CLOUDS BELOW 12,000 FEET WITH NO
SIGNIFICANT WEATHER AND/OR OBSTRUCTIONS TO VISIBILITY.


SDZ001>005-009-010-012>017-301800-
NORTHWEST AND NORTH CENTRAL SOUTH DAKOTA

CITY           SKY/WX    TMP DP  RH WIND       PRES   REMARKS
BUFFALO          N/A     79  64  60 SE10      29.86S
FAITH            N/A    N/A N/A N/A MISG      29.91S
MOBRIDGE       CLOUDY    73  68  84 S8        29.90F
$$

SDZ012>016-024>037-041>051-057-063-072>074-301800-
SOUTHWEST AND SOUTH CENTRAL SOUTH DAKOTA

CITY           SKY/WX    TMP DP  RH WIND       PRES   REMARKS
RAPID CTY ARPT CLOUDY    77  64  64 SW3       29.94S
PIERRE         PTSUNNY   78  65  63 E15       29.89F
CUSTER         CLOUDY    74  59  59 SW3       30.10F
ELLSWORTH AFB  CLOUDY    78  61  54 S5        29.93S
PHILIP         CLOUDY    81  65  58 E6        29.88F
PINE RIDGE     CLOUDY    80  60  50 W3        29.96F
SPEARFISH      FAIR      77  63  61 NW6       29.97F
WINNER         FAIR      82  56  40 SE17      29.92F
$$

SDZ004>011-016>023-039-040-301800-
NORTHEAST SOUTH DAKOTA

CITY           SKY/WX    TMP DP  RH WIND       PRES   REMARKS
ABERDEEN       CLOUDY    73  65  75 SW5       29.93S
WATERTOWN      PTSUNNY   74  62  66 E8        29.94S
BROOKINGS      MOSUNNY   73  63  68 SE6       29.96S
SISSETON         N/A     69  61  75 SE8       29.93S
$$

SDZ017-020-022-023-036>040-048>070-301800-
SOUTHEAST SOUTH DAKOTA

CITY           SKY/WX    TMP DP  RH WIND       PRES   REMARKS
SIOUX FALLS    CLOUDY    74  64  71 VRB5      29.94F
HURON          CLOUDY    69  66  90 SE6       29.90F
CHAMBERLAIN    PTSUNNY   74  64  70 SE10      29.92F
MITCHELL       CLOUDY    69  67  93 NE9       29.93R
YANKTON        CLOUDY    68  64  88 E7        29.93F
$$

ABBREVIATIONS USED IN REMARKS
   TC - TEMPERATURE IN CELSIUS
  WCI - WIND CHILL INDEX
   HX - HEAT INDEX
  VSB - VISIBILITY



USA.gov is the U.S. government's official web portal to all federal, state and local government web resources and services.